Regional Weather Roundup
Issued by NWS

Home | Current Version | Previous Version | Text Only | Print | Product List | Glossary Off
Versions: 1 2 3 4 5 6 7 8 9 10 11 12 13 14 15 16 17 18 19 20 21 22 23 24 25 26 27 28 29 30 31 32 33 34 35 36 37 38 39 40 41 42 43 44 45 46 47 48 49 50

000
ASUS43 KLSX 260507
RWRMO

WEATHER SUMMARY FOR MISSOURI
NATIONAL WEATHER SERVICE SPRINGFIELD MO
1100 PM CST SUN JAN 25 2015

NOTE: "FAIR" INDICATES FEW OR NO CLOUDS BELOW 12,000 FEET WITH NO
       SIGNIFICANT WEATHER AND/OR OBSTRUCTIONS TO VISIBILITY.
       CURRENT SKY AND/OR WEATHER CONDITIONS ARE NOT AVAILABLE FOR
       CHILLICOTHE AND FARMINGTON.

MOZ001>031-035>038-043-044-053-054-260600-
...NORTHERN AND WESTERN MISSOURI...

CITY           SKY/WX    TMP DP  RH WIND       PRES   REMARKS
KANSAS CTY INT PTCLDY    31  28  89 CALM      30.10F
KANSAS C DTWN  PTCLDY    33  28  81 CALM      30.11F
LEE`S SUMMIT   PTCLDY    32  27  81 N6        30.11S WCI  26
ST JOSEPH      PTCLDY    23  21  92 CALM      30.12R
CHILLICOTHE      N/A     33  29  85 CALM      30.11S
KIRKSVILLE     CLOUDY    29  26  89 N5        30.08S WCI  24

$$
MOZ066>068-077>081-088>096-101>105-260600-
...SOUTHWEST MISSOURI...

CITY           SKY/WX    TMP DP  RH WIND       PRES   REMARKS
SPRINGFIELD    CLOUDY    36  32  85 N15       30.07R WCI  27
JOPLIN         CLOUDY    39  30  70 NW13      30.13R

$$
MOZ032>034-039>042-045>050-055>058-069>072-260600-
...CENTRAL MISSOURI...

CITY           SKY/WX    TMP DP  RH WIND       PRES   REMARKS
COLUMBIA       CLOUDY    31  28  89 N13       30.07R WCI  21
JEFFERSON CITY CLOUDY    33  28  81 NW7       30.09R WCI  27
ROLLA          CLOUDY    30  27  88 NW12      30.02R WCI  20
SEDALIA        CLOUDY    34  29  82 N10       30.11R WCI  26
WHITEMAN AFB   CLOUDY    34  28  76 N10       30.11R WCI  26
WARRENSBURG    CLOUDY    34  30  86 N3        30.12R
OSAGE BEACH    CLOUDY    34  28  80 N6        30.07R WCI  29

$$
MOZ051-052-059>065-260600-
...EAST CENTRAL MISSOURI...

CITY           SKY/WX    TMP DP  RH WIND       PRES   REMARKS
ST LOUIS INTL  CLOUDY    32  26  78 N20       30.02R WCI  20
SPIRIT OF STL  CLOUDY    32  25  75 NW12G21   30.03R WCI  23
ST CHARLES     CLOUDY    31  25  78 N16       30.03R WCI  20

$$
MOZ072>076-082>087-097>100-106>115-260600-
...SOUTH CENTRAL AND SOUTHEAST MISSOURI...

CITY           SKY/WX    TMP DP  RH WIND       PRES   REMARKS
CAPE GIRARDEAU CLOUDY    35  33  92 NW20G28   29.93R WCI  24
FARMINGTON     CLOUDY    30  28  93 MISG      29.99R
POPLAR BLUFF   CLOUDY    39  31  72 N17       29.94R WCI  30
WEST PLAINS    CLOUDY    33  30  88 N13G23    30.01R WCI  24

$$



USA.gov is the U.S. government's official web portal to all federal, state and local government web resources and services.